Charlottesville, VA

8:16 PM EDT on June 28, 2017 (GMT -0400)
Charlottesville-Albemarle

Weather History for KCHO - August, 2013

Change the Weather History Date:

Saturday, August 10, 2013

  Actual Average Record
Temperature  
Mean Temperature 76 °F 75 °F  
Max Temperature 81 °F 85 °F 98 °F (1987)
Min Temperature 70 °F 64 °F 52 °F (2002)
Degree Days  
Heating Degree Days 0 0  
Month to date heating degree days 0 0  
Since 1 June heating degree days 2 12  
Since 1 July heating degree days 0 1  
Cooling Degree Days 11 10  
Month to date cooling degree days 95 100  
Year to date cooling degree days 862 730  
Since 1 June cooling degree days 715 644  
Growing Degree Days 25 (Base 50)    
Moisture  
Dew Point 71 °F    
Average Humidity 81    
Maximum Humidity 93    
Minimum Humidity 69    
Precipitation  
Precipitation 0.79 in 0.13 in 1.64 in (2012)
Month to date precipitation 2.15 1.40  
Year to date precipitation 29.55 25.92  
Sea Level Pressure  
Sea Level Pressure 30.05 in    
Wind  
Wind Speed 3 mph (ENE)    
Max Wind Speed 16 mph    
Max Gust Speed 21 mph    
Visibility 8 miles    
Events Rain    
T = Trace of Precipitation, MM = Missing Value Source: NWS Daily Summary

Daily Weather History Graph

Daily Weather History Graph

Search for Another Location

Airport or City:

Trip Planner

Search our weather history database for the weather conditions in past years. The results will help you decide how hot, cold, wet, or windy it might be!

Date:

Astronomy

Aug. 10, 2013 Rise Set
Actual Time 6:24 AM EDT 8:13 PM EDT
Civil Twilight 5:55 AM EDT 8:41 PM EDT
Nautical Twilight 5:21 AM EDT 9:15 PM EDT
Astronomical Twilight 4:44 AM EDT 9:52 PM EDT
Moon 10:04 AM EDT (8/10) 9:58 PM EDT (8/10)
Length of Visible Light 14h 45m
Length of Day
13h 48m
Waxing Crescent, 14% of the Moon is Illuminated
Aug 10
Waxing Crescent
Aug 14
First Quarter
Aug 20
Full
Aug 28
Last Quarter
Sep 5
New

Hourly Weather History & Observations

Time (EDT) Temp. Heat Index Dew Point Humidity Pressure Visibility Wind Dir Wind Speed Gust Speed Precip Events Conditions
12:53 AM 77.0 °F - 72.0 °F 84% 29.97 in 10.0 mi Calm Calm - N/A   Clear
1:53 AM 77.0 °F - 72.0 °F 84% 29.96 in 10.0 mi Calm Calm - N/A   Mostly Cloudy
2:53 AM 75.0 °F - 72.0 °F 90% 29.97 in 10.0 mi Calm Calm - 0.00 in   Mostly Cloudy
3:53 AM 73.0 °F - 71.1 °F 93% 29.98 in 7.0 mi Calm Calm - N/A   Clear
4:53 AM 73.9 °F - 72.0 °F 93% 29.98 in 9.0 mi Calm Calm - N/A   Clear
5:53 AM 73.0 °F - 71.1 °F 93% 30.00 in 9.0 mi Calm Calm - N/A   Scattered Clouds
6:53 AM 73.0 °F - 71.1 °F 93% 30.01 in 7.0 mi Calm Calm - N/A   Clear
7:53 AM 75.9 °F - 72.0 °F 87% 30.02 in 10.0 mi Calm Calm - N/A   Scattered Clouds
8:53 AM 77.0 °F - 72.0 °F 84% 30.05 in 10.0 mi NE 3.5 mph - N/A   Mostly Cloudy
9:53 AM 78.1 °F - 70.0 °F 76% 30.05 in 10.0 mi East 5.8 mph - N/A   Overcast
10:27 AM 77.0 °F - 69.8 °F 78% 30.06 in 10.0 mi East 5.8 mph - 0.00 in   Overcast
10:37 AM 78.8 °F - 71.6 °F 78% 30.06 in 10.0 mi East 4.6 mph - 0.00 in Rain Light Rain
10:45 AM 78.8 °F - 71.6 °F 78% 30.06 in 10.0 mi East 3.5 mph - 0.00 in   Overcast
10:53 AM 78.1 °F - 71.1 °F 79% 30.05 in 10.0 mi ENE 3.5 mph - 0.00 in   Overcast
11:17 AM 73.4 °F - 71.6 °F 94% 30.07 in 4.0 mi NNE 16.1 mph 20.7 mph 0.04 in Rain Rain
11:23 AM 71.6 °F - 69.8 °F 94% 30.09 in 1.5 mi North 8.1 mph 20.7 mph 0.10 in Rain Heavy Rain
11:26 AM 71.6 °F - 69.8 °F 94% 30.09 in 0.8 mi North 10.4 mph - 0.19 in Rain Heavy Rain
11:44 AM 69.8 °F - 69.8 °F 100% 30.08 in 1.2 mi NE 8.1 mph - 0.77 in Rain Heavy Rain
11:48 AM 69.8 °F - 69.8 °F 100% 30.08 in 2.5 mi ENE 5.8 mph - 0.77 in Rain Light Rain
11:53 AM 70.0 °F - 69.1 °F 97% 30.06 in 3.0 mi ENE 6.9 mph - 0.78 in Rain Rain
12:02 PM 69.8 °F - 69.8 °F 100% 30.08 in 6.0 mi ENE 3.5 mph - 0.00 in Rain Light Rain
12:11 PM 71.6 °F - 69.8 °F 94% 30.08 in 10.0 mi NE 5.8 mph - 0.00 in   Overcast
12:21 PM 71.6 °F - 71.6 °F 100% 30.09 in 9.0 mi NE 5.8 mph - 0.00 in   Overcast
12:51 PM 73.4 °F - 71.6 °F 94% 30.08 in 10.0 mi ENE 6.9 mph - 0.00 in   Overcast
12:53 PM 73.0 °F - 71.1 °F 93% 30.06 in 10.0 mi ENE 5.8 mph - 0.00 in   Overcast
1:53 PM 75.0 °F - 70.0 °F 84% 30.06 in 10.0 mi NNE 6.9 mph - N/A   Mostly Cloudy
2:22 PM 77.0 °F - 69.8 °F 78% 30.07 in 10.0 mi NE 4.6 mph - N/A   Mostly Cloudy
2:53 PM 79.0 °F - 70.0 °F 74% 30.04 in 10.0 mi Variable 4.6 mph - N/A   Mostly Cloudy
3:25 PM 78.8 °F - 69.8 °F 74% 30.06 in 10.0 mi NNE 3.5 mph - N/A   Mostly Cloudy
3:40 PM 78.8 °F - 69.8 °F 74% 30.06 in 10.0 mi East 3.5 mph - N/A   Overcast
3:53 PM 79.0 °F - 70.0 °F 74% 30.04 in 10.0 mi ENE 6.9 mph - N/A   Overcast
4:06 PM 80.6 °F 84.6 °F 71.6 °F 74% 30.06 in 10.0 mi NE 5.8 mph - N/A   Overcast
4:53 PM 78.1 °F - 69.1 °F 74% 30.04 in 10.0 mi NE 5.8 mph - N/A   Overcast
5:53 PM 81.0 °F 84.4 °F 70.0 °F 69% 30.03 in 10.0 mi NNE 3.5 mph - 0.00 in   Clear
6:53 PM 79.0 °F - 69.1 °F 72% 30.03 in 10.0 mi East 3.5 mph - N/A   Partly Cloudy
7:53 PM 77.0 °F - 70.0 °F 79% 30.04 in 10.0 mi ESE 3.5 mph - N/A   Mostly Cloudy
8:53 PM 77.0 °F - 70.0 °F 79% 30.06 in 10.0 mi ESE 3.5 mph - N/A   Overcast
9:53 PM 75.0 °F - 69.1 °F 82% 30.08 in 10.0 mi Calm Calm - N/A   Mostly Cloudy
10:53 PM 73.0 °F - 70.0 °F 90% 30.09 in 10.0 mi Calm Calm - N/A   Mostly Cloudy
11:16 PM 73.4 °F - 69.8 °F 88% 30.12 in 10.0 mi SSW 4.6 mph - N/A   Overcast
11:33 PM 73.4 °F - 71.6 °F 94% 30.12 in 10.0 mi SSW 4.6 mph - N/A   Overcast
11:53 PM 73.0 °F - 71.1 °F 93% 30.10 in 9.0 mi SSW 5.8 mph - N/A   Overcast